Estación de El Tambo INIA
Ultimos registro cada 15 minutos 31
| N° | Estación | Fecha / Hora | Temperatura | Humedad | Lluvia | Velocidad | Dirección | Radiación | Presion |
| 31 | El Tambo INIA | 02-09-2026 07:30 | 10,4 | 94,7 | 0 | 0 | 0 | 6,3 | 989 |
| 30 | El Tambo INIA | 02-09-2026 07:15 | 10,2 | 95,3 | 0 | 0 | 0 | 2,1 | 989 |
| 29 | El Tambo INIA | 02-09-2026 07:00 | 10 | 94,6 | 0 | 0 | 0 | 0,6 | 988 |
| 28 | El Tambo INIA | 02-09-2026 06:45 | 9,9 | 94,6 | 0 | 0 | 0 | 0,1 | 988 |
| 27 | El Tambo INIA | 02-09-2026 06:30 | 9,6 | 93,6 | 0 | 0 | 0 | 0,1 | 988 |
| 26 | El Tambo INIA | 02-09-2026 06:15 | 9,6 | 93,5 | 0 | 0 | 0 | 0 | 988 |
| 25 | El Tambo INIA | 02-09-2026 06:00 | 9,9 | 92,9 | 0 | 0 | 0 | 0 | 988 |
| 24 | El Tambo INIA | 02-09-2026 05:45 | 10,4 | 90,9 | 0 | 0 | 0 | 0 | 988 |
| 23 | El Tambo INIA | 02-09-2026 05:30 | 11,1 | 89,2 | 0 | 0 | 0 | 0 | 987 |
| 22 | El Tambo INIA | 02-09-2026 05:15 | 11,4 | 89,1 | 0 | 0 | 305 | 0 | 987 |
| 21 | El Tambo INIA | 02-09-2026 05:00 | 11,6 | 88,9 | 0 | 0 | 284 | 0 | 988 |
| 20 | El Tambo INIA | 02-09-2026 04:45 | 11,5 | 88,9 | 0 | 0,3 | 302 | 0 | 988 |
| 19 | El Tambo INIA | 02-09-2026 04:30 | 11,7 | 88,4 | 0 | 0 | 232 | 0 | 988 |
| 18 | El Tambo INIA | 02-09-2026 04:15 | 12 | 89,2 | 0 | 0 | 0 | 0 | 987 |
| 17 | El Tambo INIA | 02-09-2026 04:00 | 12,1 | 88,1 | 0 | 0 | 0 | 0 | 988 |
| 16 | El Tambo INIA | 02-09-2026 03:45 | 12,4 | 88 | 0 | 0 | 0 | 0 | 988 |
| 15 | El Tambo INIA | 02-09-2026 03:30 | 12,6 | 86,8 | 0 | 0 | 0 | 0 | 988 |
| 14 | El Tambo INIA | 02-09-2026 03:15 | 12,9 | 85,9 | 0 | 0 | 304 | 0 | 988 |
| 13 | El Tambo INIA | 02-09-2026 03:00 | 13,1 | 84,2 | 0 | 0 | 0 | 0 | 988 |
| 12 | El Tambo INIA | 02-09-2026 02:45 | 13,4 | 84,3 | 0 | 0 | 0 | 0 | 988 |
| 11 | El Tambo INIA | 02-09-2026 02:30 | 14,1 | 81 | 0 | 0 | 226 | 0 | 988 |
| 10 | El Tambo INIA | 02-09-2026 02:15 | 14,7 | 75,3 | 0 | 0,2 | 59 | 0 | 988 |
| 9 | El Tambo INIA | 02-09-2026 02:00 | 14,3 | 73,4 | 0 | 0,7 | 56 | 0 | 988 |
| 8 | El Tambo INIA | 02-09-2026 01:45 | 13,7 | 79,1 | 0 | 0,1 | 35 | 0 | 988 |
| 7 | El Tambo INIA | 02-09-2026 01:30 | 13,7 | 80,3 | 0 | 0 | 54 | 0 | 988 |
| 6 | El Tambo INIA | 02-09-2026 01:15 | 13,7 | 82,4 | 0 | 0 | 0 | 0 | 988 |
| 5 | El Tambo INIA | 02-09-2026 01:00 | 13,8 | 82,1 | 0 | 0 | 0 | 0 | 989 |
| 4 | El Tambo INIA | 02-09-2026 00:45 | 14,2 | 80,2 | 0 | 0 | 0 | 0 | 988 |
| 3 | El Tambo INIA | 02-09-2026 00:30 | 14,4 | 76,7 | 0 | 0 | 0 | 0 | 988 |
| 2 | El Tambo INIA | 02-09-2026 00:15 | 14,7 | 76,4 | 0 | 0 | 0 | 0 | 988 |
| 1 | El Tambo INIA | 02-09-2026 00:00 | 14,7 | 73,7 | 0 | 0 | 0 | 0 | 989 |